Weather History for Florence, SC

Change the Weather History Date:

Sunday, December 9, 2012

  Actual Average Record
Temperature  
Mean Temperature 64 °F 48 °F  
Max Temperature 77 °F 59 °F 78 °F (1951)
Min Temperature 51 °F 38 °F 17 °F (2006)
Degree Days  
Heating Degree Days 1 17  
Month to date heating degree days 38 141  
Since 1 July heating degree days 515 563  
Cooling Degree Days 0 0  
Month to date cooling degree days 2 0  
Year to date cooling degree days 2312 2059  
Growing Degree Days 13 (Base 50)    
Moisture  
Dew Point 57 °F    
Average Humidity 79    
Maximum Humidity 93    
Minimum Humidity 64    
Precipitation  
Precipitation 0.00 in 0.10 in 1.21 in (1989)
Month to date precipitation 0.28 0.81  
Year to date precipitation 37.80 40.71  
Sea Level Pressure  
Sea Level Pressure 30.09 in    
Wind  
Wind Speed 2 mph (South)    
Max Wind Speed 10 mph    
Max Gust Speed 13 mph    
Visibility 6 miles    
Events Fog    
T = Trace of Precipitation, MM = Missing Value Source: NWS Daily Summary

Daily Weather History Graph

Daily Weather History Graph

Search for Another Location

Airport:

Trip Planner

Search our weather history database for the weather conditions in past years. The results will help you decide how hot, cold, wet, or windy it might be!

Date:

Astronomy

Dec. 09, 2012 Rise Set
Actual Time 7:13 AM EST 5:09 PM EST
Civil Twilight 6:45 AM EST 5:37 PM EST
Nautical Twilight 6:14 AM EST 6:08 PM EST
Astronomical Twilight 5:44 AM EST 6:38 PM EST
Moon 2:52 AM EST (12/9) 2:08 PM EST (12/9)
Length of Visible Light 10h 51m
Length of Day
9h 55m
Waning Crescent, 19% of the Moon is Illuminated
Dec 9
Waning Crescent
Dec 13
New
Dec 20
First Quarter
Dec 28
Full
Jan 4
Last Quarter

Hourly Weather History & Observations

Time (EST) Temp. Dew Point Humidity Pressure Visibility Wind Dir Wind Speed Gust Speed Precip Events Conditions
12:53 AM 55.0 °F 51.1 °F 86% 30.08 in 6.0 mi Calm Calm - N/A   Clear
1:53 AM 53.1 °F 50.0 °F 89% 30.08 in 4.0 mi Calm Calm - N/A   Clear
2:19 AM 53.6 °F 51.8 °F 94% 30.08 in 1.8 mi Calm Calm - N/A   Clear
2:28 AM 53.6 °F 50.0 °F 88% 30.08 in 3.0 mi Calm Calm - N/A   Scattered Clouds
2:43 AM 53.6 °F 50.0 °F 88% 30.08 in 1.8 mi Calm Calm - N/A   Scattered Clouds
2:53 AM 53.1 °F 50.0 °F 89% 30.08 in 0.8 mi Calm Calm - N/A   Scattered Clouds
3:04 AM 51.8 °F 50.0 °F 94% 30.09 in 1.8 mi Calm Calm - N/A   Clear
3:15 AM 51.8 °F 48.2 °F 88% 30.09 in 0.5 mi Calm Calm - N/A Fog Fog
3:23 AM 53.6 °F 50.0 °F 88% 30.09 in 2.0 mi NNW 3.5 mph - N/A   Scattered Clouds
3:31 AM 53.6 °F 51.8 °F 94% 30.09 in 5.0 mi Calm Calm - N/A   Mostly Cloudy
3:53 AM 54.0 °F 51.1 °F 90% 30.09 in 5.0 mi Calm Calm - N/A   Mostly Cloudy
4:53 AM 53.1 °F 50.0 °F 89% 30.09 in 8.0 mi Calm Calm - N/A   Overcast
5:53 AM 54.0 °F 50.0 °F 86% 30.10 in 7.0 mi SE 3.5 mph - N/A   Overcast
6:43 AM 53.6 °F 51.8 °F 94% 30.12 in 6.0 mi Calm Calm - N/A   Overcast
6:53 AM 55.0 °F 51.1 °F 86% 30.12 in 5.0 mi Calm Calm - N/A   Overcast
7:53 AM 57.0 °F 53.1 °F 87% 30.13 in 5.0 mi Calm Calm - N/A   Overcast
8:17 AM 57.2 °F 53.6 °F 88% 30.13 in 5.0 mi Calm Calm - N/A   Overcast
8:53 AM 57.9 °F 54.0 °F 87% 30.14 in 2.5 mi ESE 3.5 mph - N/A   Overcast
9:02 AM 57.2 °F 55.4 °F 94% 30.14 in 1.5 mi Calm Calm - N/A   Overcast
9:22 AM 59.0 °F 55.4 °F 88% 30.14 in 0.5 mi Calm Calm - N/A Fog Fog
9:29 AM 59.0 °F 55.4 °F 88% 30.14 in 0.2 mi Calm Calm - N/A Fog Fog
9:53 AM 60.1 °F 57.9 °F 93% 30.14 in 0.2 mi SE 3.5 mph - N/A Fog Fog
10:12 AM 62.6 °F 59.0 °F 88% 30.15 in 1.0 mi Calm Calm - N/A   Mist
10:20 AM 62.6 °F 59.0 °F 88% 30.15 in 3.0 mi Calm Calm - N/A   Overcast
10:27 AM 62.6 °F 59.0 °F 88% 30.15 in 2.0 mi SSE 3.5 mph - N/A   Overcast
10:46 AM 62.6 °F 59.0 °F 88% 30.14 in 5.0 mi South 4.6 mph - N/A   Overcast
10:53 AM 63.0 °F 60.1 °F 90% 30.14 in 5.0 mi South 3.5 mph - N/A   Overcast
11:06 AM 64.4 °F 60.8 °F 88% 30.14 in 8.0 mi SW 3.5 mph - N/A   Overcast
11:53 AM 69.1 °F 61.0 °F 75% 30.11 in 10.0 mi South 4.6 mph - N/A   Overcast
12:02 PM 69.8 °F 60.8 °F 73% 30.11 in 10.0 mi Calm Calm - N/A   Overcast
12:53 PM 71.1 °F 62.1 °F 73% 30.08 in 10.0 mi Variable 3.5 mph - N/A   Overcast
1:33 PM 73.4 °F 62.6 °F 69% 30.07 in 10.0 mi SW 4.6 mph - N/A   Mostly Cloudy
1:41 PM 73.4 °F 62.6 °F 69% 30.07 in 10.0 mi SSW 3.5 mph - N/A   Overcast
1:53 PM 75.0 °F 62.1 °F 64% 30.06 in 10.0 mi Calm Calm - N/A   Overcast
2:16 PM 75.2 °F 62.6 °F 65% 30.06 in 10.0 mi SW 4.6 mph - N/A   Mostly Cloudy
2:53 PM 75.9 °F 62.1 °F 62% 30.05 in 10.0 mi South 5.8 mph - N/A   Scattered Clouds
3:53 PM 75.9 °F 62.1 °F 62% 30.05 in 10.0 mi South 4.6 mph - N/A   Scattered Clouds
4:53 PM 73.9 °F 62.1 °F 66% 30.04 in 10.0 mi Calm Calm - N/A   Clear
5:53 PM 69.1 °F 62.1 °F 78% 30.04 in 10.0 mi Calm Calm - N/A   Scattered Clouds
6:53 PM 66.9 °F 62.1 °F 84% 30.05 in 10.0 mi SE 4.6 mph - N/A   Mostly Cloudy
7:53 PM 68.0 °F 63.0 °F 84% 30.04 in 10.0 mi Calm Calm - N/A   Scattered Clouds
8:53 PM 66.0 °F 62.1 °F 87% 30.04 in 10.0 mi Calm Calm - N/A   Mostly Cloudy
9:50 PM 64.4 °F 62.6 °F 94% 30.03 in 8.0 mi SE 4.6 mph - N/A   Overcast
9:53 PM 64.9 °F 62.1 °F 90% 30.02 in 7.0 mi SE 4.6 mph - N/A   Overcast
10:53 PM 66.0 °F 63.0 °F 90% 30.01 in 10.0 mi SSE 5.8 mph - N/A   Overcast
11:53 PM 66.0 °F 62.1 °F 87% 29.99 in 10.0 mi Calm Calm - N/A   Mostly Cloudy